• In Latvia
  • List of Countries
  • For 7 days
  • Water Temperature
  • Satellite Maps
  • Weather Map
  • Weather Widgets
  • user-avatar
    Login

    Hourly Weather Lubango

    Today, 15 November, Thursday

    Time Temperature Precipitation Wind Pressure Humidity
    00:00 +18°C° 0 mm 1 mps 609 mmHg 70%
    01:00 +16°C° 0 mm 1 mps 609 mmHg 77%
    02:00 +15°C° 0 mm 1 mps 608 mmHg 79%
    03:00 +15°C° 0 mm 1 mps 608 mmHg 82%
    04:00 +15°C° 0 mm 1 mps 608 mmHg 84%
    05:00 +16°C° 0 mm 1 mps 609 mmHg 78%
    06:00 +18°C° 0 mm 1 mps 609 mmHg 73%
    07:00 +19°C° 0 mm 1 mps 610 mmHg 64%
    08:00 +22°C° 0 mm 1 mps 611 mmHg 52%
    09:00 +25°C° 0 mm 1 mps 612 mmHg 41%
    10:00 +27°C° 0 mm 1 mps 613 mmHg 29%
    11:00 +29°C° 0 mm 2 mps 613 mmHg 26%
    12:00 +30°C° 0 mm 3 mps 613 mmHg 22%
    13:00 +30°C° 0 mm 4 mps 612 mmHg 22%
    14:00 +30°C° 0 mm 4 mps 612 mmHg 22%
    15:00 +30°C° 0 mm 4 mps 611 mmHg 22%
    16:00 +30°C° 0 mm 4 mps 611 mmHg 22%
    17:00 +27°C° 0 mm 3 mps 610 mmHg 32%
    18:00 +25°C° 0 mm 3 mps 610 mmHg 43%
    19:00 +21°C° 0 mm 3 mps 609 mmHg 53%
    20:00 +20°C° 0 mm 3 mps 609 mmHg 60%
    21:00 +19°C° 0 mm 2 mps 609 mmHg 67%
    22:00 +17°C° 0 mm 2 mps 609 mmHg 74%
    23:00 +18°C° 0 mm 1 mps 609 mmHg 75%

    Tomorrow, 16 November, Friday

    Time Temperature Precipitation Wind Pressure Humidity
    00:00 +18°C° 0 mm 1 mps 609 mmHg 76%
    01:00 +16°C° 0 mm 1 mps 609 mmHg 78%
    02:00 +16°C° 0 mm 1 mps 608 mmHg 78%
    03:00 +16°C° 0 mm 1 mps 608 mmHg 79%
    04:00 +15°C° 0 mm 1 mps 608 mmHg 80%
    05:00 +16°C° 0 mm 1 mps 608 mmHg 73%
    06:00 +19°C° 0 mm 1 mps 609 mmHg 66%
    07:00 +20°C° 0 mm 1 mps 610 mmHg 60%
    08:00 +23°C° 0 mm 1 mps 611 mmHg 48%
    09:00 +26°C° 0 mm 2 mps 612 mmHg 37%
    10:00 +29°C° 0 mm 2 mps 613 mmHg 26%
    11:00 +30°C° 0 mm 3 mps 613 mmHg 23%
    12:00 +31°C° 0 mm 3 mps 613 mmHg 20%
    13:00 +33°C° 0 mm 4 mps 613 mmHg 17%
    14:00 +33°C° 0 mm 4 mps 612 mmHg 19%
    15:00 +32°C° 0 mm 4 mps 611 mmHg 21%
    16:00 +30°C° 0 mm 4 mps 611 mmHg 24%
    17:00 +27°C° 0 mm 3 mps 610 mmHg 35%
    18:00 +24°C° 0 mm 3 mps 610 mmHg 46%
    19:00 +20°C° 0 mm 3 mps 609 mmHg 57%
    20:00 +19°C° 0 mm 2 mps 609 mmHg 62%
    21:00 +18°C° 0 mm 2 mps 610 mmHg 68%
    22:00 +17°C° 0 mm 2 mps 610 mmHg 74%
    23:00 +16°C° 0 mm 1 mps 609 mmHg 76%

    Day after tomorrow, 17 November, Saturday

    Time Temperature Precipitation Wind Pressure Humidity
    00:00 +16°C° 0 mm 1 mps 609 mmHg 78%
    01:00 +15°C° 0 mm 1 mps 608 mmHg 80%
    02:00 +15°C° 0 mm 1 mps 608 mmHg 81%
    03:00 +15°C° 0 mm 1 mps 608 mmHg 82%
    04:00 +14°C° 0 mm 1 mps 608 mmHg 83%
    05:00 +15°C° 0 mm 1 mps 608 mmHg 76%
    06:00 +18°C° 0 mm 1 mps 609 mmHg 70%
    07:00 +19°C° 0 mm 1 mps 610 mmHg 64%
    08:00 +22°C° 0 mm 1 mps 611 mmHg 52%
    09:00 +25°C° 0 mm 2 mps 612 mmHg 40%
    10:00 +28°C° 0 mm 2 mps 613 mmHg 28%
    11:00 +29°C° 0 mm 2 mps 613 mmHg 26%
    12:00 +30°C° 0 mm 2 mps 613 mmHg 23%
    13:00 +31°C° 0 mm 3 mps 613 mmHg 21%
    14:00 +30°C° 0 mm 3 mps 612 mmHg 24%
    15:00 +29°C° 0 mm 4 mps 611 mmHg 28%
    16:00 +28°C° 0 mm 4 mps 610 mmHg 31%
    17:00 +25°C° 0 mm 4 mps 610 mmHg 40%
    18:00 +22°C° 0 mm 3 mps 610 mmHg 49%
    19:00 +20°C° 0 mm 3 mps 609 mmHg 58%
    20:00 +19°C° 0 mm 3 mps 610 mmHg 63%
    21:00 +18°C° 0 mm 2 mps 610 mmHg 68%
    22:00 +17°C° 0 mm 2 mps 610 mmHg 74%
    23:00 +16°C° 0 mm 1 mps 610 mmHg 76%

    18 November, Sunday

    Time Temperature Precipitation Wind Pressure Humidity
    00:00 +15°C° 0 mm 1 mps 609 mmHg 79%
    01:00 +15°C° 0 mm 1 mps 608 mmHg 82%
    02:00 +15°C° 0 mm 1 mps 608 mmHg 82%
    03:00 +14°C° 0 mm 1 mps 608 mmHg 83%
    04:00 +14°C° 0 mm 1 mps 608 mmHg 83%
    05:00 +15°C° 0 mm 1 mps 609 mmHg 72%
    06:00 +18°C° 0 mm 1 mps 609 mmHg 61%
    07:00 +20°C° 0 mm 1 mps 610 mmHg 50%
    08:00 +23°C° 0 mm 1 mps 611 mmHg 41%
    09:00 +26°C° 0 mm 1 mps 612 mmHg 31%
    10:00 +29°C° 0 mm 2 mps 613 mmHg 22%
    11:00 +30°C° 0 mm 2 mps 613 mmHg 20%
    12:00 +31°C° 0 mm 2 mps 613 mmHg 19%
    13:00 +33°C° 0 mm 3 mps 612 mmHg 18%
    14:00 +31°C° 0 mm 3 mps 612 mmHg 21%
    15:00 +29°C° 0 mm 4 mps 611 mmHg 23%
    16:00 +28°C° 0 mm 4 mps 610 mmHg 26%
    17:00 +26°C° 0 mm 4 mps 609 mmHg 33%
    18:00 +24°C° 0 mm 3 mps 609 mmHg 40%
    19:00 +20°C° 0 mm 3 mps 609 mmHg 46%
    20:00 +19°C° 0 mm 2 mps 609 mmHg 50%
    21:00 +19°C° 0 mm 2 mps 609 mmHg 54%
    22:00 +19°C° 0 mm 1 mps 609 mmHg 57%
    23:00 +18°C° 0 mm 1 mps 609 mmHg 59%

    19 November, Monday

    Time Temperature Precipitation Wind Pressure Humidity
    00:00 +18°C° 0 mm 1 mps 608 mmHg 61%
    01:00 +16°C° 0 mm 1 mps 608 mmHg 63%
    02:00 +16°C° 0 mm 1 mps 608 mmHg 62%
    03:00 +18°C° 0 mm 1 mps 608 mmHg 61%
    04:00 +18°C° 0 mm 1 mps 608 mmHg 60%
    05:00 +19°C° 0 mm 1 mps 609 mmHg 56%
    06:00 +19°C° 0 mm 1 mps 609 mmHg 53%
    07:00 +20°C° 0 mm 1 mps 610 mmHg 49%
    08:00 +23°C° 0 mm 1 mps 611 mmHg 41%
    09:00 +26°C° 0 mm 1 mps 612 mmHg 33%
    10:00 +28°C° 0 mm 2 mps 613 mmHg 25%
    11:00 +29°C° 0 mm 2 mps 613 mmHg 23%
    12:00 +30°C° 0 mm 3 mps 612 mmHg 21%
    13:00 +31°C° 0 mm 3 mps 612 mmHg 19%
    14:00 +30°C° 0 mm 3 mps 611 mmHg 23%
    15:00 +28°C° 0 mm 4 mps 610 mmHg 27%
    16:00 +27°C° 0 mm 4 mps 609 mmHg 31%
    17:00 +25°C° 0.1 mm 3 mps 609 mmHg 36%
    18:00 +22°C° 0.1 mm 3 mps 609 mmHg 41%
    19:00 +20°C° 0.1 mm 2 mps 609 mmHg 46%
    20:00 +20°C° 0.6 mm 2 mps 609 mmHg 51%
    21:00 +20°C° 0.6 mm 1 mps 610 mmHg 56%
    22:00 +19°C° 0.6 mm 1 mps 610 mmHg 61%
    23:00 +18°C° 0 mm 1 mps 609 mmHg 63%

    20 November, Tuesday

    Time Temperature Precipitation Wind Pressure Humidity
    00:00 +18°C° 0 mm 1 mps 609 mmHg 65%
    01:00 +15°C° 0 mm 0 mps 608 mmHg 68%
    02:00 +15°C° 0 mm 0 mps 608 mmHg 68%
    03:00 +14°C° 0 mm 0 mps 608 mmHg 69%
    04:00 +14°C° 0 mm 0 mps 607 mmHg 70%
    05:00 +16°C° 0 mm 1 mps 608 mmHg 65%
    06:00 +19°C° 0 mm 1 mps 609 mmHg 60%
    07:00 +20°C° 0 mm 1 mps 610 mmHg 55%
    08:00 +22°C° 0 mm 1 mps 611 mmHg 48%
    09:00 +24°C° 0 mm 1 mps 612 mmHg 40%
    10:00 +26°C° 0 mm 1 mps 613 mmHg 33%
    11:00 +27°C° 0 mm 2 mps 612 mmHg 30%
    12:00 +29°C° 0 mm 2 mps 612 mmHg 28%
    13:00 +30°C° 0 mm 2 mps 612 mmHg 25%
    14:00 +29°C° 0 mm 3 mps 611 mmHg 28%
    15:00 +28°C° 0 mm 3 mps 610 mmHg 30%
    16:00 +27°C° 0 mm 3 mps 610 mmHg 32%
    17:00 +25°C° 0 mm 3 mps 610 mmHg 38%
    18:00 +23°C° 0 mm 2 mps 609 mmHg 44%
    19:00 +20°C° 0 mm 2 mps 609 mmHg 50%
    20:00 +20°C° 0 mm 2 mps 609 mmHg 54%
    21:00 +20°C° 0 mm 1 mps 609 mmHg 58%
    22:00 +19°C° 0 mm 1 mps 609 mmHg 62%
    23:00 +18°C° 0 mm 1 mps 609 mmHg 63%
    Show more